Regional Weather Roundup
Issued by NWS

Home | Current Version | Previous Version | Text Only | Print | Product List | Glossary On
Versions: 1 2 3 4 5 6 7 8 9 10 11 12 13 14 15 16 17 18 19 20 21 22 23 24 25 26 27 28 29 30 31 32 33 34 35 36 37 38 39 40 41 42 43 44 45 46 47 48 49 50
974
ASUS43 KDTX 271610
RWRMI
MICHIGAN HOURLY REGIONAL WEATHER ROUNDUP
NATIONAL WEATHER SERVICE DETROIT/PONTIAC MI
1200 PM EDT WED JUL 27 2016

NOTE: "FAIR" INDICATES FEW OR NO CLOUDS BELOW 12,000 FEET WITH NO
SIGNIFICANT WEATHER AND/OR OBSTRUCTION TO VISIBILITY.

MIZ047>049-052>055-059>063-066>070-074>076-081>083-271700-
SOUTHEAST LOWER MICHIGAN

CITY           SKY/WX    TMP DP  RH WIND       PRES   REMARKS
ADRIAN         SUNNY     84  63  49 SW8       30.02F
ALMA           SUNNY     85  69  58 SW9G20    29.99S
ANN ARBOR      MOSUNNY   85  64  49 SW8       30.01S
BAD AXE        SUNNY     84  63  49 W7        29.97F
CARO           SUNNY     86  65  49 SW10      29.97F
DETROIT CITY   SUNNY     84  62  47 NW12      30.00F
DETROIT        MOSUNNY   87  62  43 SW8       30.01S
FLINT          SUNNY     89  57  33 W12       30.00S
GROSSE ILE     SUNNY     83  66  57 S7        30.00S
HILLSDALE      SUNNY     81  64  56 SW3       30.03F
HOWELL         SUNNY     84  62  47 W7        30.01F

CITY           SKY/WX    TMP DP  RH WIND       PRES   REMARKS
JACKSON        SUNNY     83  63  50 VRB5      30.02F
LAMBERTVILLE   MOSUNNY   84  63  48 CALM      30.02S
LANSING        SUNNY     83  59  44 SW9       30.01F
LAPEER         FAIR      86  55  34 W7        30.00S
MASON          MOSUNNY   81  65  57 SW7       30.01F
MONROE         SUNNY     83  68  59 SW3       30.00F
MT. CLEMENS    MOSUNNY   85  64  50 SW7       29.98F
PONTIAC        MOSUNNY   83  63  50 SW9G16    30.01S
PORT HOPE        N/A     82  68  62 NW7       29.95S
PORT HURON     SUNNY     82  66  57 SW6       29.99S
TRI CITIES     SUNNY     84  68  58 SW9       29.98S
MIDLAND        FAIR      84  68  57 SW5       29.97S
TROY           PTSUNNY   86  59  39 W9        30.02S
SAGINAW HB     SUNNY     84  64  51 SW10      29.97S
$$
MIZ043>046-050>051-056>058-064>065-071>073-077>080-271700-
SOUTHWEST LOWER MICHIGAN

CITY           SKY/WX    TMP DP  RH WIND       PRES   REMARKS
BATTLE CREEK   SUNNY     79  63  57 S8        30.03F
BENTON HARBOR  SUNNY     83  64  52 NW3       30.01F
BIG RAPIDS     SUNNY     83  72  68 CALM      29.99S
COLDWATER      SUNNY     81  64  57 CALM      30.03F
FREMONT        FAIR      84  73  69 SW8       29.98F HX  90
HOLLAND        MOSUNNY   81  70  69 W7        30.02S
GRAND RAPIDS   PTSUNNY   84  66  54 W6        30.01F
IONIA          FAIR      83  62  48 SW7       30.00F
KALAMAZOO      SUNNY     82  60  47 S5        30.01F
LUDINGTON      SUNNY     76  71  83 SW7       29.98R
MARSHALL       SUNNY     82  64  55 SW6       30.03S
MOUNT PLEASANT SUNNY     86  68  55 SW5       29.97F
MUSKEGON       PTSUNNY   81  69  67 VRB7      30.00S
SOUTH HAVEN    SUNNY     82  65  56 W5        30.01S
$$
MIZ016>042-271700-
NORTHERN LOWER MICHIGAN

CITY           SKY/WX    TMP DP  RH WIND       PRES   REMARKS
ALPENA         SUNNY     86  63  45 N12       29.96S
BEAVER ISLAND  PTSUNNY   75  66  71 NW6       30.00R
BELLAIRE       MOSUNNY   82  67  59 N5        29.97R
CADILLAC       SUNNY     83  65  55 W3        30.00R
CHARLEVOIX     CLOUDY    77  67  70 NW8       30.01R
FRANKFORT      SUNNY     81  69  66 W6        29.99R
GAYLORD        MOSUNNY   83  60  45 VRB5      29.99S
GRAYLING       SUNNY     86  63  46 CALM      29.99S
HARBOR SPRINGS MOSUNNY   75  67  76 W5        29.98R
HOUGHTON LAKE  SUNNY     81  66  60 SW7       30.00R
MANISTEE       SUNNY     82  70  66 W8        29.97R
OSCODA         SUNNY     85  63  47 CALM      29.94S
PELLSTON       MOSUNNY   80  63  55 W7        29.98R
ROGERS CITY    CLOUDY    75  66  72 N6        29.97S
TRAVERSE CITY  PTSUNNY   84  65  52 N6        29.95S
$$
MIZ007>008-015-271700-
EASTERN UPPER MICHIGAN

CITY           SKY/WX    TMP DP  RH WIND       PRES   REMARKS
KINROSS        CLOUDY    72  66  81 N6        29.98R
MACKINAC ISLAN MOSUNNY   74  65  74 SW3       29.98R
NEWBERRY       MOSUNNY   75  66  73 CALM      29.98S
S. S. MARIE    CLOUDY    75  65  70 W6        29.96R
MUNISING         N/A     71  67  87 N9        29.99S
$$
MIZ004>006-011>014-085-271700-
CENTRAL UPPER MICHIGAN

CITY           SKY/WX    TMP DP  RH WIND       PRES   REMARKS
MANISTIQUE     MOSUNNY   73  70  88 SW3       29.98S
ESCANABA       CLOUDY    75  64  69 NE3       29.98
MENOMINEE      CLOUDY   N/A N/A N/A VRB6      30.02R
SAWYER-GWINN   PTSUNNY   72  63  73 NE10      30.02R
$$
MIZ001>003-009>011-084-271700-
WESTERN UPPER MICHIGAN

CITY           SKY/WX    TMP DP  RH WIND       PRES   REMARKS
IRON MOUNTAIN  RAIN      68  64  87 W6        30.02S FOG
HOUGHTON       CLOUDY    68  56  65 SE6       30.03R
COPPER HARBOR    N/A     63  56  78 E6        30.03S
IRONWOOD       CLOUDY    68  66  94 NE3       29.99S
$$

ABBREVIATIONS USED IN REMARKS
   TC - TEMPERATURE IN CELSIUS
  WCI - WIND CHILL INDEX
   HX - HEAT INDEX
  VSB - VISIBILITY





USA.gov is the U.S. government's official web portal to all federal, state and local government web resources and services.